This demonstration page uses our WeatherBlox Daily Observations layout. Learn more.

Left ArrowRight Arrow

39.51506, -84.39828

Hourly Observations for June 24, 2020

Temp ( °F °C ) Dew Point ( °F °C ) Humidity (%) Winds ( mph kmh ) Pressure ( in mb ) Visibility ( mi km ) Precip ( " mm )
12:15 am 00:15 Clear 60 15.5 58 14.5 94 94 Calm 29.85 1011 10 16.0934 0 0
12:35 am 00:35 Clear 59 15.2 58 14.6 96 96 Calm 29.85 1011 10 16.0934 0 0
12:55 am 00:55 Clear 59 15.2 59 15 99 99 Calm 29.86 1011 10 16.0934 0 0
1:15 am 01:15 Clear 59 14.9 58 14.4 97 97 WNW 3 6 29.86 1011 10 16.0934 0 0
1:35 am 01:35 Cloudy 60 15.8 60 15.4 97 97 Calm 29.85 1011 10 16.0934 0 0
1:55 am 01:55 Cloudy 61 15.9 59 15.2 96 96 WSW 3 6 29.85 1011 10 16.0934 0 0
2:15 am 02:15 Cloudy 62 16.5 59 14.8 90 90 SW 5 7 29.85 1011 10 16.0934 0 0
2:35 am 02:35 Cloudy 62 16.7 59 14.8 89 89 Calm 29.84 1011 10 16.0934 0 0
2:55 am 02:55 Mostly Cloudy 62 16.9 58 14.4 85 85 Calm 29.85 1011 10 16.0934 0 0
3:15 am 03:15 Cloudy 63 17.3 59 14.8 85 85 Calm 29.85 1011 10 16.0934 0 0
3:35 am 03:35 Cloudy 63 17.1 60 15.3 89 89 Calm 29.85 1011 10 16.0934 0 0
3:55 am 03:55 Cloudy 63 17.1 60 15.5 90 90 SW 3 6 29.85 1011 10 16.0934 0 0
4:15 am 04:15 Cloudy 63 17.2 61 15.9 92 92 Calm 29.85 1011 10 16.0934 0 0
4:35 am 04:35 Cloudy 63 17.2 60 15.6 90 90 Calm 29.85 1011 10 16.0934 0 0
4:55 am 04:55 Cloudy 63 17.3 60 15.5 89 89 SW 3 6 29.86 1011 10 16.0934 0 0
5:15 am 05:15 Cloudy 63 17 61 16.2 95 95 Calm 29.86 1011 10 16.0934 0 0
5:35 am 05:35 Cloudy 63 17.1 60 15.7 92 92 SW 3 6 29.86 1011 10 16.0934 0 0
5:55 am 05:55 Cloudy 62 16.7 60 15.6 93 93 Calm 29.86 1011 10 16.0934 0 0
6:15 am 06:15 Cloudy 63 17 60 15.8 93 93 SW 5 7 29.87 1012 7 11.26538 0 0
6:35 am 06:35 Cloudy 63 17.1 61 16 93 93 WSW 6 9 29.87 1012 10 16.0934 0 0
6:55 am 06:55 Cloudy 63 17.3 61 16 92 92 WSW 5 7 29.88 1012 10 16.0934 0 0
7:15 am 07:15 Cloudy 64 17.5 61 16.2 92 92 SW 6 9 29.89 1012 10 16.0934 0 0
7:35 am 07:35 Cloudy 64 17.7 61 16.3 92 92 SW 5 7 29.89 1012 10 16.0934 0 0
7:55 am 07:55 Mostly Cloudy 65 18.5 62 16.7 89 89 WSW 5 7 29.88 1012 10 16.0934 0 0
8:15 am 08:15 Cloudy 67 19.3 62 16.4 83 83 W 6 9 29.89 1012 10 16.0934 0 0
8:35 am 08:35 Mostly Cloudy 67 19.5 61 16 80 80 W 7 11 29.89 1012 10 16.0934 0 0
8:55 am 08:55 Partly Cloudy 68 20 61 16 78 78 W 7 11 29.88 1012 10 16.0934 0 0
9:15 am 09:15 Partly Cloudy 70 20.9 61 16.1 74 74 W 5 7 29.88 1012 10 16.0934 0 0
9:35 am 09:35 Sunny 71 21.6 60 15.7 69 69 NW 8 13 29.88 1012 10 16.0934 0 0
9:55 am 09:55 Sunny 72 22.2 60 15.6 66 66 W 8 13 29.88 1012 10 16.0934 0 0
10:15 am 10:15 Sunny 73 22.9 59 14.8 60 60 WNW 10 17 29.88 1012 10 16.0934 0 0
10:35 am 10:35 Sunny 74 23.2 58 14.3 57 57 WNW 10 17 29.88 1012 10 16.0934 0 0
10:55 am 10:55 Sunny 75 23.9 59 15.2 58 58 WNW 10 17 29.88 1012 10 16.0934 0 0
11:15 am 11:15 Sunny 75 23.9 58 14.2 55 55 W 12 19 29.88 1012 10 16.0934 0 0
11:35 am 11:35 Partly Cloudy 75 24 58 14.4 55 55 WNW 12 19 29.89 1012 10 16.0934 0 0
11:55 am 11:55 Partly Cloudy 76 24.2 59 15 57 57 W 13 20 29.88 1012 10 16.0934 0 0
12:15 pm 12:15 Sunny 76 24.6 58 14.4 53 53 W 10 17 29.88 1012 10 16.0934 0 0
12:35 pm 12:35 Mostly Cloudy 76 24.4 58 14.3 53 53 W 9 15 29.88 1012 10 16.0934 0 0
12:55 pm 12:55 Mostly Cloudy 76 24.3 57 14 53 53 WNW 7 11 29.88 1012 10 16.0934 0 0
1:15 pm 13:15 Partly Cloudy 77 25.2 58 14.2 51 51 WSW 5 7 29.87 1012 10 16.0934 0 0
1:35 pm 13:35 Cloudy 76 24.2 57 13.7 52 52 NW 8 13 29.88 1012 7 11.26538 0 0
1:55 pm 13:55 Cloudy 74 23.6 56 13.4 53 53 W 7 11 29.89 1012 10 16.0934 0 0
2:15 pm 14:15 Cloudy 75 23.7 58 14.3 56 56 W 8 13 29.89 1012 10 16.0934 0 0
2:35 pm 14:35 Cloudy 76 24.3 59 15.1 57 57 W 7 11 29.88 1012 10 16.0934 0 0
2:55 pm 14:55 Partly Cloudy 78 25.7 60 15.4 53 53 WNW 9 15 29.88 1012 10 16.0934 0 0
3:15 pm 15:15 Mostly Cloudy 78 25.4 58 14.6 51 51 WSW 10 17 29.87 1012 10 16.0934 0 0
3:35 pm 15:35 Mostly Cloudy 77 24.9 57 14.1 51 51 WSW 12 19 29.88 1012 10 16.0934 0 0
3:55 pm 15:55 Mostly Cloudy 77 24.9 58 14.6 53 53 W 8 13 29.88 1012 10 16.0934 0 0
4:15 pm 16:15 Mostly Cloudy 77 24.9 58 14.4 52 52 W 9 15 29.88 1012 10 16.0934 0 0
4:35 pm 16:35 Sunny 80 26.5 59 14.8 49 49 W 10 17 29.87 1012 10 16.0934 0 0
4:55 pm 16:55 Mostly Cloudy 76 24.6 58 14.6 54 54 WSW 12 19 29.87 1012 10 16.0934 0 0
5:15 pm 17:15 Cloudy 75 24 59 15 57 57 WSW 8 13 29.88 1012 10 16.0934 0 0
5:35 pm 17:35 Cloudy with Light Rain 74 23.2 60 15.8 63 63 WSW 7 11 29.88 1012 10 16.0934 0 0
5:55 pm 17:55 Mostly Cloudy 75 23.7 61 16.3 63 63 WSW 5 7 29.88 1012 10 16.0934 0 0
6:15 pm 18:15 Cloudy 76 24.3 61 16 60 60 W 3 6 29.87 1012 10 16.0934 0 0
6:35 pm 18:35 Partly Cloudy 76 24.3 60 15.4 58 58 SW 7 11 29.87 1012 10 16.0934 0 0
6:55 pm 18:55 Mostly Cloudy 73 23 59 14.8 60 60 SW 9 15 29.88 1012 10 16.0934 0 0
7:15 pm 19:15 Cloudy 75 23.8 59 14.9 58 58 SW 16 26 29.88 1012 10 16.0934 0 0
7:35 pm 19:35 Partly Cloudy 72 22.4 57 13.8 58 58 SW 9 15 29.89 1012 10 16.0934 0 0
7:55 pm 19:55 Sunny 72 22.4 57 13.8 58 58 SW 8 13 29.88 1012 10 16.0934 0 0
8:15 pm 20:15 Sunny 71 21.7 59 14.8 65 65 Calm 29.88 1012 10 16.0934 0 0
8:35 pm 20:35 Sunny 70 21.3 60 15.5 70 70 Calm 29.89 1012 10 16.0934 0 0
8:55 pm 20:55 Sunny 68 20.2 59 15 72 72 Calm 29.88 1012 7 11.26538 0 0
9:15 pm 21:15 Clear 66 19.1 60 15.4 79 79 Calm 29.89 1012 10 16.0934 0 0
9:35 pm 21:35 Hazy 68 20.2 58 14.5 70 70 Calm 29.88 1012 7 11.26538 0 0
9:55 pm 21:55 Clear 66 18.9 59 14.9 78 78 Calm 29.9 1012 10 16.0934 0 0
10:15 pm 22:15 Clear 64 17.8 59 15.1 84 84 Calm 29.9 1013 10 16.0934 0 0
10:35 pm 22:35 Clear 61 16.3 60 15.6 96 96 Calm 29.91 1013 10 16.0934 0 0
10:55 pm 22:55 Clear 61 16.1 60 15.4 96 96 Calm 29.91 1013 10 16.0934 0 0
11:15 pm 23:15 Clear 62 16.7 60 15.6 93 93 Calm 29.92 1013 10 16.0934 0 0
11:35 pm 23:35 Clear 61 16 60 15.5 97 97 Calm 29.92 1013 10 16.0934 0 0
11:55 pm 23:55 Clear 61 15.9 60 15.5 97 97 Calm 29.93 1014 10 16.0934 0 0

Powered by AerisWeather